Regional Weather Roundup
Issued by NWS

Home | Current Version | Previous Version | Graphics & Text | Print | Product List | Glossary On
Versions: 1 2 3 4 5 6 7 8 9 10 11 12 13 14 15 16 17 18 19 20 21 22 23 24 25 26 27 28 29 30 31 32 33 34 35 36 37 38 39 40 41 42 43 44 45 46 47 48 49 50
000
ASUS43 KOAX 290210
RWRNE

WEATHER ROUNDUP FOR NEBRASKA
NATIONAL WEATHER SERVICE OMAHA NE
900 PM CDT FRI APR 28 2017

NOTES: SATELLITE DATA IS BEING USED TO AUGMENT CLOUD COVER ABOVE
       12000 FEET.
       "FAIR" INDICATES FEW OR NO CLOUDS BELOW 12,000 FEET WITH NO
       SIGNIFICANT WEATHER AND/OR OBSTRUCTIONS TO VISIBILITY.

  * THESE STATIONS DO NOT REPORT WEATHER SUCH AS RAIN...SNOW OR FOG.

NEZ001>004-019>022-054>056-290300-
NEBRASKA PANHANDLE

CITY           SKY/WX    TMP DP  RH WIND       PRES   REMARKS
SCOTTSBLUFF    LGT SNOW  34  31  88 N10       30.07R FOG     WCI  26
ALLIANCE       CLOUDY    34  32  92 N6        30.05R WCI  29
CHADRON        CLOUDY    41  30  65 NE9       30.09R
KIMBALL        CLOUDY    32  31  96 NE9       30.03R WCI  24
SIDNEY         CLOUDY    32  31  96 NE14      30.04R WCI  22
$$

NEZ057>060-069>072-079>082-290300-
SOUTHWEST NEBRASKA

CITY           SKY/WX    TMP DP  RH WIND       PRES   REMARKS
NORTH PLATTE   CLOUDY    38  34  85 NE12      30.03R WCI  30
IMPERIAL       CLOUDY    36  31  82 NE16      30.03R WCI  26
LEXINGTON      CLOUDY    37  33  85 NE13      30.01R WCI  29
MCCOOK         CLOUDY    38  35  89 NE16      29.99R WCI  29
OGALLALA       CLOUDY    38  34  85 N8        30.04R WCI  32
$$

NEZ005>010-023>029-035>040-094-290300-
NORTH CENTRAL NEBRASKA

CITY           SKY/WX    TMP DP  RH WIND       PRES   REMARKS
VALENTINE      CLOUDY    46  25  43 NE12      30.04S
AINSWORTH      CLOUDY    43  31  62 NE7       30.03R
BROKEN BOW     CLOUDY    38  34  85 NE9       30.00R WCI  31
O`NEILL        CLOUDY    44  29  56 NE7       30.04R
ORD            CLOUDY    40  33  76 N7        30.00R
THEDFORD       CLOUDY    39  35  85 NW3       30.03R
$$

NEZ041-046>049-061>064-073>077-083>087-290300-
SOUTH CENTRAL NEBRASKA

CITY           SKY/WX    TMP DP  RH WIND       PRES   REMARKS
GRAND ISLAND   CLOUDY    39  38  96 NE10      30.00R WCI  32
AURORA         CLOUDY    39  38  95 NE15      29.99R WCI  30
HASTINGS       CLOUDY    39  36  89 NE18G25   29.99R WCI  30
HEBRON         CLOUDY    40  38  93 NE9       29.98R WCI  34
HOLDREGE       CLOUDY    37  35  90 NE18      30.00R WCI  27
KEARNEY *      CLOUDY    37  34  87 NE13      30.01R WCI  29
YORK           CLOUDY    39  39 100 NE14      29.99R FOG     WCI  31
$$

NEZ011>018-030>034-042>045-290300-
NORTHEAST NEBRASKA

CITY           SKY/WX    TMP DP  RH WIND       PRES   REMARKS
NORFOLK        CLOUDY    42  34  73 N10       30.00R
ALBION         CLOUDY    42  35  75 N7        30.00R
BLAIR          CLOUDY    41  39  92 N6        29.98R
FREMONT        CLOUDY    41  39  93 CALM      30.01R
TEKAMAH        CLOUDY    43  38  82 N8        29.99R
WAYNE          CLOUDY    43  36  74 N9        30.01R
$$

NEZ050>053-065>068-078-088>093-290300-
SOUTHEAST NEBRASKA

CITY           SKY/WX    TMP DP  RH WIND       PRES   REMARKS
LINCOLN        CLOUDY    40  39  97 NE15      30.00R FOG     WCI  32
OMAHA EPPLEY   CLOUDY    43  37  79 NE8       30.00R
BEATRICE       CLOUDY    41  40  97 NE14G20   29.96R FOG
FALLS CITY     CLOUDY    44  41  89 NE10      29.95R
NEBRASKA CITY  CLOUDY    41  41 100 NE13      29.96R FOG
PLATTSMOUTH    CLOUDY    41  38  91 N5        29.99R FOG
$$

NEZ044-045-051>053-067-290300-
OMAHA AREA

CITY           SKY/WX    TMP DP  RH WIND       PRES   REMARKS
OMAHA EPPLEY   CLOUDY    43  37  79 NE8       30.00R
BLAIR          CLOUDY    41  39  92 N6        29.98R
FREMONT        CLOUDY    41  39  93 CALM      30.01R
MILLARD        CLOUDY    43  40  89 NE6       30.00R
OFFUTT AFB     CLOUDY    42  38  89 N9        29.99R
PLATTSMOUTH    CLOUDY    41  38  91 N5        29.99R FOG
WAHOO          CLOUDY    41  39  91 NE8       30.00R
$$



USA.gov is the U.S. government's official web portal to all federal, state and local government web resources and services.